M I D A S
Marine Information and Data Acquisition System
Tripno 1231 of the Zeeleeuw from 2007-03-14 09:39:51 to 2007-03-14 15:19:52
Back to CruiseResearch ActivitiesStationsMapUnderway DataData graphs

EquipmentUnitsComments
TimeDGPSUTC
LatitudeDGPSDM.mWGS84
LongitudeDGPSDM.mWGS84
SpeedMeteo Stationm/sRelative wind speed
DirectionMeteo StationdegRelative wind direction
TemperatureMeteo Stationdeg CelciusAir temperature
PressureMeteo StationPaAtmospheric pressure
HumidityMeteo Station%Relative humidity
Missing or incorrect values are displayed as -999
Metereological data collected by the RV Zeeleeuw from 2007-03-14 07:26:35 to 2007-03-14 15:30:33
                                                                                    Next 1000 lines
Time Latitude Longitude Speed Direction Temperature Pressure Humidity
2007-03-14 07:26:45 51°13.597 2°56.094 0.7 356 3 103540 100
2007-03-14 07:26:50 51°13.597 2°56.094 0.5 4 3 103540 100
2007-03-14 07:26:55 51°13.597 2°56.094 0.4 279 3 103540 100
2007-03-14 07:27:00 51°13.597 2°56.094 0.3 341 3 103540 100
2007-03-14 07:27:05 51°13.597 2°56.094 0.2 27 3 103540 100
2007-03-14 07:27:10 51°13.597 2°56.094 0.2 22 3 103540 100
2007-03-14 07:27:15 51°13.597 2°56.094 0.1 21 3 103540 100
2007-03-14 07:27:20 51°13.597 2°56.094 0.7 25 3 103540 100
2007-03-14 07:27:25 51°13.597 2°56.094 1.6 27 3 103540 100
2007-03-14 07:27:30 51°13.597 2°56.094 1.1 26 3 103540 100
2007-03-14 07:27:35 51°13.597 2°56.094 1.9 24 3 103540 100
2007-03-14 07:27:40 51°13.597 2°56.094 1.6 29 3 103540 100
2007-03-14 07:27:45 51°13.597 2°56.094 1.8 21 3 103540 100
2007-03-14 07:27:50 51°13.597 2°56.094 1.6 13 3 103540 100
2007-03-14 07:27:55 51°13.597 2°56.094 1.4 17 3 103540 100
2007-03-14 07:28:00 51°13.597 2°56.094 1.3 10 3 103540 100
2007-03-14 07:28:05 51°13.597 2°56.094 1 20 3 103540 100
2007-03-14 07:28:10 51°13.597 2°56.094 1.1 356 3 103540 100
2007-03-14 07:28:15 51°13.597 2°56.094 1 2 3 103540 100
2007-03-14 07:28:20 51°13.597 2°56.094 0.7 30 3 103540 100
2007-03-14 07:28:25 51°13.597 2°56.094 0.7 29 3 103540 100
2007-03-14 07:28:30 51°13.597 2°56.094 0.7 20 3 103540 100
2007-03-14 07:28:35 51°13.597 2°56.094 1 14 3.1 103540 100
2007-03-14 07:28:40 51°13.597 2°56.094 1 33 3.1 103540 100
2007-03-14 07:28:45 51°13.598 2°56.094 0.8 17 3 103540 100
2007-03-14 07:28:50 51°13.598 2°56.094 0.8 26 3 103540 100
2007-03-14 07:28:55 51°13.598 2°56.094 0.8 18 3.1 103540 100
2007-03-14 07:29:00 51°13.598 2°56.094 0.9 1 3.1 103540 100
2007-03-14 07:29:05 51°13.598 2°56.094 0.9 12 3 103540 100
2007-03-14 07:29:10 51°13.598 2°56.094 0.9 21 3 103540 100
2007-03-14 07:29:15 51°13.598 2°56.094 1 24 3.1 103540 100
2007-03-14 07:29:20 51°13.598 2°56.094 0.8 22 3.1 103540 100
2007-03-14 07:29:25 51°13.598 2°56.094 0.9 19 3.1 103540 100
2007-03-14 07:29:30 51°13.598 2°56.094 0.8 19 3.1 103540 100
2007-03-14 07:29:35 51°13.598 2°56.094 0.7 21 3.1 103540 100
2007-03-14 07:29:40 51°13.598 2°56.094 0.7 29 3.1 103540 100
2007-03-14 07:29:45 51°13.598 2°56.094 0.6 25 3.1 103540 100
2007-03-14 07:29:50 51°13.598 2°56.094 0.5 1 3.1 103540 100
2007-03-14 07:29:55 51°13.598 2°56.094 0.6 21 3.1 103540 100
2007-03-14 07:30:00 51°13.598 2°56.094 0.7 11 3.1 103540 100
2007-03-14 07:30:05 51°13.598 2°56.094 0.8 18 3.1 103540 100
2007-03-14 07:30:10 51°13.598 2°56.094 0.9 22 3.1 103540 100
2007-03-14 07:30:15 51°13.598 2°56.094 1 5 3.1 103540 100
2007-03-14 07:30:20 51°13.598 2°56.094 1 10 3.1 103540 100
2007-03-14 07:30:25 51°13.598 2°56.094 1.2 14 3.1 103540 100
2007-03-14 07:30:30 51°13.598 2°56.094 1.4 8 3.1 103540 100
2007-03-14 07:30:35 51°13.598 2°56.094 1 9 3.1 103540 100
2007-03-14 07:30:40 51°13.598 2°56.094 1 17 3.1 103540 100
2007-03-14 07:30:45 51°13.598 2°56.094 0.9 18 3.2 103540 100
2007-03-14 07:30:50 51°13.598 2°56.094 1 14 3.2 103540 100
2007-03-14 07:30:55 51°13.598 2°56.094 1.3 23 3.2 103540 100
2007-03-14 07:31:00 51°13.598 2°56.094 1.3 33 3.2 103540 100
2007-03-14 07:31:05 51°13.598 2°56.094 1.6 15 3.2 103540 100
2007-03-14 07:31:10 51°13.598 2°56.094 1.7 15 3.2 103540 100
2007-03-14 07:31:15 51°13.598 2°56.094 1.4 17 3.2 103540 100
2007-03-14 07:31:20 51°13.598 2°56.094 1.6 23 3.2 103540 100
2007-03-14 07:31:25 51°13.598 2°56.094 1.4 25 3.2 103540 100
2007-03-14 07:31:30 51°13.598 2°56.094 1.7 23 3.2 103540 100
2007-03-14 07:31:35 51°13.598 2°56.094 1.4 18 3.2 103540 100
2007-03-14 07:31:40 51°13.598 2°56.094 1.1 8 3.2 103540 100
2007-03-14 07:31:45 51°13.598 2°56.094 1.2 15 3.2 103540 100
2007-03-14 07:31:50 51°13.598 2°56.094 1.4 18 3.2 103540 100
2007-03-14 07:31:55 51°13.598 2°56.094 0.9 23 3.2 103540 100
2007-03-14 07:32:00 51°13.598 2°56.094 1.1 20 3.2 103540 100
2007-03-14 07:32:05 51°13.598 2°56.094 1.1 14 3.2 103540 100
2007-03-14 07:32:10 51°13.598 2°56.094 1.2 16 3.2 103540 100
2007-03-14 07:32:15 51°13.598 2°56.094 1 15 3.2 103540 100
2007-03-14 07:32:20 51°13.598 2°56.094 1.1 17 3.2 103540 100
2007-03-14 07:32:25 51°13.598 2°56.094 1 8 3.2 103540 100
2007-03-14 07:32:30 51°13.598 2°56.094 1 9 3.2 103540 100
2007-03-14 07:32:35 51°13.599 2°56.094 1 16 3.2 103540 100
2007-03-14 07:32:40 51°13.599 2°56.094 0.9 21 3.2 103540 100
2007-03-14 07:32:45 51°13.599 2°56.094 0.9 22 3.2 103540 100
2007-03-14 07:32:50 51°13.599 2°56.094 1 24 3.2 103540 100
2007-03-14 07:32:55 51°13.598 2°56.094 1.1 21 3.2 103540 100
2007-03-14 07:33:00 51°13.598 2°56.094 0.9 19 3.2 103540 100
2007-03-14 07:33:05 51°13.598 2°56.094 1.5 24 3.2 103540 100
2007-03-14 07:33:10 51°13.598 2°56.094 1.5 19 3.2 103540 100
2007-03-14 07:33:15 51°13.598 2°56.094 1.7 22 3.2 103540 100
2007-03-14 07:33:20 51°13.598 2°56.094 1.6 9 3.2 103540 100
2007-03-14 07:33:25 51°13.598 2°56.094 1.3 10 3.2 103540 100
2007-03-14 07:33:30 51°13.598 2°56.094 1.3 14 3.2 103540 100
2007-03-14 07:33:35 51°13.598 2°56.094 1.3 24 3.2 103540 100
2007-03-14 07:33:40 51°13.598 2°56.094 1.7 25 3.2 103540 100
2007-03-14 07:33:45 51°13.598 2°56.094 2 26 3.2 103540 100
2007-03-14 07:33:50 51°13.597 2°56.094 1.8 24 3.2 103540 100
2007-03-14 07:33:55 51°13.597 2°56.094 1.6 21 3.2 103540 100
2007-03-14 07:34:00 51°13.597 2°56.094 1.4 20 3.2 103540 100
2007-03-14 07:34:05 51°13.597 2°56.094 1.3 24 3.2 103540 100
2007-03-14 07:34:10 51°13.597 2°56.094 1.1 20 3.2 103540 100
2007-03-14 07:34:15 51°13.597 2°56.094 1.3 23 3.2 103540 100
2007-03-14 07:34:20 51°13.597 2°56.094 1.3 13 3.2 103540 100
2007-03-14 07:34:25 51°13.597 2°56.094 1.2 16 3.2 103540 100
2007-03-14 07:34:30 51°13.598 2°56.094 0.8 6 3.2 103540 100
2007-03-14 07:34:35 51°13.598 2°56.094 1.3 15 3.2 103540 100
2007-03-14 07:34:40 51°13.598 2°56.094 1.1 31 3.2 103540 100
2007-03-14 07:34:45 51°13.598 2°56.094 1 20 3.2 103540 100
2007-03-14 07:34:50 51°13.598 2°56.094 1 20 3.2 103540 100
2007-03-14 07:34:55 51°13.598 2°56.094 1.1 31 3.2 103540 100
2007-03-14 07:35:00 51°13.598 2°56.094 0.9 44 3.2 103540 100
2007-03-14 07:35:05 51°13.598 2°56.094 0.5 351 3.2 103540 100
2007-03-14 07:35:10 51°13.598 2°56.094 1.1 9 3.2 103540 100
2007-03-14 07:35:15 51°13.598 2°56.094 1.3 350 3.2 103540 100
2007-03-14 07:35:20 51°13.598 2°56.094 1.6 14 3.2 103540 100
2007-03-14 07:35:25 51°13.598 2°56.094 1.5 2 3.2 103540 100
2007-03-14 07:35:30 51°13.598 2°56.094 1.4 18 3.2 103540 100
2007-03-14 07:35:35 51°13.598 2°56.094 1.8 14 3.2 103540 100
2007-03-14 07:35:40 51°13.598 2°56.094 1.7 17 3.2 103540 100
2007-03-14 07:35:45 51°13.598 2°56.094 1.7 10 3.3 103540 100
2007-03-14 07:35:50 51°13.597 2°56.094 1.6 14 3.3 103540 100
2007-03-14 07:35:55 51°13.597 2°56.094 1.7 14 3.3 103540 100
2007-03-14 07:36:00 51°13.597 2°56.094 1.6 14 3.3 103540 100
2007-03-14 07:36:05 51°13.597 2°56.094 1.6 16 3.3 103540 100
2007-03-14 07:36:10 51°13.597 2°56.094 1.4 17 3.3 103540 100
2007-03-14 07:36:15 51°13.597 2°56.094 1.3 24 3.3 103540 100
2007-03-14 07:36:20 51°13.597 2°56.094 0.7 34 3.3 103540 100
2007-03-14 07:36:25 51°13.597 2°56.094 0.8 34 3.3 103540 100
2007-03-14 07:36:30 51°13.597 2°56.094 1.2 26 3.3 103540 100
2007-03-14 07:36:35 51°13.598 2°56.094 1 25 3.3 103540 100
2007-03-14 07:36:40 51°13.597 2°56.094 1 18 3.3 103540 100
2007-03-14 07:36:45 51°13.598 2°56.094 1.2 24 3.3 103550 100
2007-03-14 07:36:50 51°13.598 2°56.094 1.2 21 3.3 103550 100
2007-03-14 07:36:55 51°13.598 2°56.094 1.5 16 3.4 103540 100
2007-03-14 07:37:00 51°13.598 2°56.094 1.6 18 3.4 103540 100
2007-03-14 07:37:05 51°13.598 2°56.094 1.6 19 3.4 103540 100
2007-03-14 07:37:10 51°13.598 2°56.094 1.6 15 3.4 103540 100
2007-03-14 07:37:15 51°13.598 2°56.094 1.7 13 3.4 103540 100
2007-03-14 07:37:20 51°13.598 2°56.094 1.5 14 3.4 103540 100
2007-03-14 07:37:25 51°13.598 2°56.095 1.7 12 3.4 103550 100
2007-03-14 07:37:30 51°13.598 2°56.095 1.2 16 3.4 103550 100
2007-03-14 07:37:35 51°13.598 2°56.095 1.6 21 3.4 103540 100
2007-03-14 07:37:40 51°13.598 2°56.095 1.4 19 3.4 103540 100
2007-03-14 07:37:45 51°13.598 2°56.095 1.7 13 3.4 103540 100
2007-03-14 07:37:50 51°13.598 2°56.095 1.5 20 3.4 103540 100
2007-03-14 07:37:55 51°13.599 2°56.095 1.4 17 3.4 103540 100
2007-03-14 07:38:00 51°13.599 2°56.095 1.5 17 3.4 103540 100
2007-03-14 07:38:05 51°13.599 2°56.095 1.3 25 3.4 103540 100
2007-03-14 07:38:10 51°13.599 2°56.094 1.4 24 3.4 103540 100
2007-03-14 07:38:15 51°13.599 2°56.094 1.2 22 3.4 103550 100
2007-03-14 07:38:20 51°13.599 2°56.094 1.3 28 3.4 103550 100
2007-03-14 07:38:25 51°13.599 2°56.094 1.3 19 3.4 103550 100
2007-03-14 07:38:30 51°13.599 2°56.094 1.4 20 3.4 103550 100
2007-03-14 07:38:35 51°13.599 2°56.094 1.3 21 3.5 103550 100
2007-03-14 07:38:40 51°13.599 2°56.094 1.4 12 3.5 103550 100
2007-03-14 07:38:45 51°13.599 2°56.094 1.2 15 3.4 103550 100
2007-03-14 07:38:50 51°13.599 2°56.094 1.4 27 3.4 103550 100
2007-03-14 07:38:55 51°13.599 2°56.094 1.4 18 3.5 103540 100
2007-03-14 07:39:00 51°13.599 2°56.094 1.5 21 3.5 103540 100
2007-03-14 07:39:05 51°13.599 2°56.094 1.2 21 3.5 103540 100
2007-03-14 07:39:10 51°13.599 2°56.094 1.4 16 3.5 103540 100
2007-03-14 07:39:15 51°13.599 2°56.094 1.6 18 3.4 103550 100
2007-03-14 07:39:20 51°13.599 2°56.094 1.6 24 3.4 103550 100
2007-03-14 07:39:25 51°13.599 2°56.094 1.5 16 3.5 103540 100
2007-03-14 07:39:30 51°13.599 2°56.094 1.2 6 3.5 103540 100
2007-03-14 07:39:35 51°13.599 2°56.094 1.3 11 3.5 103550 100
2007-03-14 07:39:40 51°13.599 2°56.095 1.3 17 3.5 103550 100
2007-03-14 07:39:45 51°13.599 2°56.095 1.2 16 3.5 103550 100
2007-03-14 07:39:50 51°13.599 2°56.095 1.2 18 3.5 103550 100
2007-03-14 07:39:55 51°13.599 2°56.095 1 24 3.5 103540 100
2007-03-14 07:40:00 51°13.599 2°56.095 0.9 24 3.5 103540 100
2007-03-14 07:40:05 51°13.599 2°56.095 1 22 3.5 103540 100
2007-03-14 07:40:10 51°13.599 2°56.095 0.9 22 3.5 103540 100
2007-03-14 07:40:15 51°13.599 2°56.095 0.9 22 3.5 103550 100
2007-03-14 07:40:20 51°13.599 2°56.095 0.9 24 3.5 103550 100
2007-03-14 07:40:25 51°13.599 2°56.095 0.9 27 3.5 103550 100
2007-03-14 07:40:30 51°13.599 2°56.095 0.5 28 3.5 103550 100
2007-03-14 07:40:35 51°13.599 2°56.095 1.1 28 3.5 103550 100
2007-03-14 07:40:40 51°13.599 2°56.095 1.2 23 3.5 103550 100
2007-03-14 07:40:45 51°13.599 2°56.095 1.2 16 3.5 103550 100
2007-03-14 07:40:50 51°13.599 2°56.095 1.4 24 3.5 103550 100
2007-03-14 07:40:55 51°13.599 2°56.095 1.5 21 3.6 103540 100
2007-03-14 07:41:00 51°13.599 2°56.095 1.1 18 3.6 103540 100
2007-03-14 07:41:05 51°13.598 2°56.095 1.2 11 3.5 103540 100
2007-03-14 07:41:10 51°13.598 2°56.095 1.6 11 3.5 103540 100
2007-03-14 07:41:15 51°13.598 2°56.095 1.2 6 3.6 103550 100
2007-03-14 07:41:20 51°13.598 2°56.095 1.5 10 3.6 103550 100
2007-03-14 07:41:25 51°13.598 2°56.095 1.4 14 3.6 103550 100
2007-03-14 07:41:30 51°13.598 2°56.095 1.4 16 3.6 103550 100
2007-03-14 07:41:35 51°13.598 2°56.095 1.2 18 3.6 103550 100
2007-03-14 07:41:40 51°13.598 2°56.095 1.3 19 3.6 103550 100
2007-03-14 07:41:45 51°13.598 2°56.095 1.2 22 3.6 103550 100
2007-03-14 07:41:50 51°13.598 2°56.095 1.1 25 3.6 103550 100
2007-03-14 07:41:55 51°13.598 2°56.095 1 21 3.6 103550 100
2007-03-14 07:42:00 51°13.598 2°56.094 1.3 20 3.6 103550 100
2007-03-14 07:42:05 51°13.598 2°56.094 1.3 30 3.6 103550 100
2007-03-14 07:42:10 51°13.598 2°56.094 1.4 28 3.6 103550 100
2007-03-14 07:42:15 51°13.598 2°56.094 1.3 11 3.6 103550 100
2007-03-14 07:42:20 51°13.598 2°56.094 0.6 15 3.6 103550 100
2007-03-14 07:42:25 51°13.598 2°56.094 1 11 3.6 103550 100
2007-03-14 07:42:30 51°13.598 2°56.094 1.1 1 3.6 103550 100
2007-03-14 07:42:35 51°13.598 2°56.094 1.4 9 3.6 103550 100
2007-03-14 07:42:40 51°13.598 2°56.094 1.3 19 3.6 103550 100
2007-03-14 07:42:45 51°13.598 2°56.094 1.6 8 3.6 103550 100
2007-03-14 07:42:50 51°13.598 2°56.094 1.6 10 3.6 103550 100
2007-03-14 07:42:55 51°13.598 2°56.094 1.6 13 3.6 103550 100
2007-03-14 07:43:00 51°13.598 2°56.094 1.4 21 3.6 103550 100
2007-03-14 07:43:05 51°13.598 2°56.094 1.4 16 3.6 103550 100
2007-03-14 07:43:10 51°13.598 2°56.094 1.5 12 3.6 103550 100
2007-03-14 07:43:15 51°13.598 2°56.094 1.3 4 3.6 103550 100
2007-03-14 07:43:20 51°13.598 2°56.094 1.5 17 3.6 103550 100
2007-03-14 07:43:25 51°13.598 2°56.095 1.3 15 3.6 103540 100
2007-03-14 07:43:30 51°13.598 2°56.095 1.2 20 3.6 103540 100
2007-03-14 07:43:35 51°13.598 2°56.095 1.1 18 3.6 103550 100
2007-03-14 07:43:40 51°13.598 2°56.095 1.1 23 3.6 103550 100
2007-03-14 07:43:45 51°13.598 2°56.095 1.2 22 3.6 103550 100
2007-03-14 07:43:50 51°13.598 2°56.095 1.2 24 3.6 103550 100
2007-03-14 07:43:55 51°13.598 2°56.095 1.1 12 3.6 103550 100
2007-03-14 07:44:00 51°13.598 2°56.095 1.1 22 3.6 103550 100
2007-03-14 07:44:05 51°13.598 2°56.095 1 20 3.7 103550 100
2007-03-14 07:44:10 51°13.598 2°56.095 0.9 22 3.7 103550 100
2007-03-14 07:44:15 51°13.598 2°56.095 0.9 21 3.6 103550 100
2007-03-14 07:44:20 51°13.598 2°56.095 1.2 21 3.6 103550 100
2007-03-14 07:44:25 51°13.598 2°56.095 1 21 3.7 103550 100
2007-03-14 07:44:30 51°13.598 2°56.095 0.9 7 3.7 103550 100
2007-03-14 07:44:35 51°13.598 2°56.095 1.1 14 3.7 103550 100
2007-03-14 07:44:40 51°13.598 2°56.095 0.9 17 3.7 103550 100
2007-03-14 07:44:45 51°13.598 2°56.095 0.7 9 3.7 103550 100
2007-03-14 07:44:50 51°13.598 2°56.095 0.5 40 3.7 103550 100
2007-03-14 07:44:55 51°13.598 2°56.095 0.8 17 3.7 103550 100
2007-03-14 07:45:00 51°13.598 2°56.095 1 14 3.7 103550 100
2007-03-14 07:45:05 51°13.598 2°56.095 1 13 3.7 103550 100
2007-03-14 07:45:10 51°13.598 2°56.095 1 25 3.7 103550 100
2007-03-14 07:45:15 51°13.598 2°56.095 0.9 23 3.7 103550 100
2007-03-14 07:45:20 51°13.598 2°56.095 1.1 19 3.7 103550 100
2007-03-14 07:45:25 51°13.598 2°56.095 1.1 20 3.7 103550 100
2007-03-14 07:45:30 51°13.598 2°56.095 0.8 1 3.7 103550 100
2007-03-14 07:45:35 51°13.598 2°56.095 1.1 14 3.7 103550 100
2007-03-14 07:45:40 51°13.598 2°56.095 1.1 354 3.7 103550 100
2007-03-14 07:45:45 51°13.598 2°56.095 1.3 18 3.7 103550 100
2007-03-14 07:45:50 51°13.598 2°56.095 1.4 13 3.7 103550 100
2007-03-14 07:45:55 51°13.598 2°56.095 1.2 16 3.7 103550 100
2007-03-14 07:46:00 51°13.598 2°56.095 0.8 7 3.7 103550 100
2007-03-14 07:46:05 51°13.598 2°56.095 0.6 1 3.8 103550 100
2007-03-14 07:46:10 51°13.598 2°56.095 0.8 4 3.8 103550 100
2007-03-14 07:46:15 51°13.598 2°56.095 0.8 5 3.8 103550 100
2007-03-14 07:46:20 51°13.598 2°56.095 0.9 4 3.8 103550 100
2007-03-14 07:46:25 51°13.598 2°56.095 0.9 4 3.8 103550 100
2007-03-14 07:46:30 51°13.598 2°56.095 0.9 9 3.8 103550 100
2007-03-14 07:46:35 51°13.598 2°56.096 1 1 3.8 103550 100
2007-03-14 07:46:40 51°13.598 2°56.096 1.1 7 3.8 103550 100
2007-03-14 07:46:45 51°13.598 2°56.096 0.9 6 3.8 103550 100
2007-03-14 07:46:50 51°13.598 2°56.096 1.1 12 3.8 103550 100
2007-03-14 07:46:55 51°13.598 2°56.096 1 10 3.8 103550 100
2007-03-14 07:47:00 51°13.598 2°56.096 1 8 3.8 103550 100
2007-03-14 07:47:05 51°13.598 2°56.096 1.1 358 3.8 103550 100
2007-03-14 07:47:10 51°13.598 2°56.096 1 -999 3.8 103550 100
2007-03-14 07:47:15 51°13.598 2°56.096 0.7 2 3.8 103550 100
2007-03-14 07:47:20 51°13.598 2°56.096 0.7 11 3.8 103550 100
2007-03-14 07:47:25 51°13.598 2°56.096 0.7 11 3.9 103550 100
2007-03-14 07:47:30 51°13.598 2°56.095 0.7 11 3.9 103550 100
2007-03-14 07:47:35 51°13.598 2°56.095 1.1 27 3.9 103550 100
2007-03-14 07:47:40 51°13.598 2°56.095 1 25 3.9 103550 100
2007-03-14 07:47:45 51°13.598 2°56.095 0.8 23 3.9 103550 100
2007-03-14 07:47:50 51°13.598 2°56.095 0.6 24 3.9 103550 100
2007-03-14 07:47:55 51°13.598 2°56.095 0.5 4 3.9 103550 100
2007-03-14 07:48:00 51°13.598 2°56.095 0.6 352 3.9 103550 100
2007-03-14 07:48:05 51°13.598 2°56.095 0.9 5 3.9 103550 100
2007-03-14 07:48:10 51°13.598 2°56.095 0.9 7 3.9 103550 100
2007-03-14 07:48:15 51°13.598 2°56.095 0.9 8 3.9 103540 100
2007-03-14 07:48:20 51°13.598 2°56.095 0.8 9 3.9 103540 100
2007-03-14 07:48:25 51°13.598 2°56.095 0.8 9 4 103550 100
2007-03-14 07:48:30 51°13.598 2°56.095 0.6 23 4 103550 100
2007-03-14 07:48:35 51°13.598 2°56.095 0.6 18 4 103550 100
2007-03-14 07:48:40 51°13.598 2°56.094 0.6 14 4 103550 100
2007-03-14 07:48:45 51°13.598 2°56.094 0.4 8 4 103550 100
2007-03-14 07:48:50 51°13.598 2°56.094 0.5 10 4 103550 100
2007-03-14 07:48:55 51°13.598 2°56.094 0.7 7 4 103550 100
2007-03-14 07:49:00 51°13.598 2°56.095 0.9 346 4 103550 100
2007-03-14 07:49:05 51°13.598 2°56.095 0.8 6 4 103550 100
2007-03-14 07:49:10 51°13.598 2°56.095 0.9 6 4 103550 100
2007-03-14 07:49:15 51°13.598 2°56.095 1.2 9 4 103540 100
2007-03-14 07:49:20 51°13.598 2°56.095 0.9 17 4 103540 100
2007-03-14 07:49:25 51°13.598 2°56.095 0.8 17 4 103540 100
2007-03-14 07:49:30 51°13.598 2°56.095 0.9 17 4 103540 100
2007-03-14 07:49:35 51°13.599 2°56.095 0.9 17 4.1 103550 100
2007-03-14 07:49:40 51°13.599 2°56.095 0.8 16 4.1 103550 100
2007-03-14 07:49:45 51°13.599 2°56.095 0.8 9 4.1 103550 100
2007-03-14 07:49:50 51°13.599 2°56.095 0.7 9 4.1 103550 100
2007-03-14 07:49:55 51°13.599 2°56.094 0.7 9 4.1 103540 100
2007-03-14 07:50:00 51°13.599 2°56.094 0.5 5 4.1 103540 100
2007-03-14 07:50:05 51°13.599 2°56.094 0.4 5 4.1 103550 100
2007-03-14 07:50:10 51°13.599 2°56.094 0.3 5 4.1 103550 100
2007-03-14 07:50:15 51°13.599 2°56.094 0.8 14 4.1 103550 100
2007-03-14 07:50:20 51°13.599 2°56.094 0.7 14 4.1 103550 100
2007-03-14 07:50:25 51°13.599 2°56.094 0.6 15 4.1 103550 100
2007-03-14 07:50:30 51°13.599 2°56.094 0.8 355 4.1 103550 100
2007-03-14 07:50:35 51°13.599 2°56.094 0.7 355 4.1 103550 100
2007-03-14 07:50:40 51°13.599 2°56.094 0.7 359 4.1 103550 100
2007-03-14 07:50:45 51°13.599 2°56.094 0.6 359 4.2 103550 100
2007-03-14 07:50:50 51°13.599 2°56.094 0.6 359 4.2 103550 100
2007-03-14 07:50:55 51°13.599 2°56.094 0.7 358 4.2 103550 100
2007-03-14 07:51:00 51°13.599 2°56.094 0.6 360 4.2 103550 100
2007-03-14 07:51:05 51°13.599 2°56.094 0.5 2 4.2 103550 100
2007-03-14 07:51:10 51°13.599 2°56.094 0.5 9 4.2 103550 100
2007-03-14 07:51:15 51°13.599 2°56.094 0.7 10 4.2 103550 100
2007-03-14 07:51:20 51°13.599 2°56.094 0.7 10 4.2 103550 100
2007-03-14 07:51:25 51°13.599 2°56.094 0.7 10 4.2 103550 100
2007-03-14 07:51:30 51°13.599 2°56.094 0.5 10 4.2 103550 100
2007-03-14 07:51:35 51°13.599 2°56.094 0.4 10 4.2 103550 100
2007-03-14 07:51:40 51°13.599 2°56.094 0.4 20 4.2 103550 100
2007-03-14 07:51:45 51°13.599 2°56.094 0.4 23 4.2 103550 100
2007-03-14 07:51:50 51°13.599 2°56.094 0.3 23 4.2 103550 100
2007-03-14 07:51:55 51°13.599 2°56.094 0.3 23 4.2 103550 100
2007-03-14 07:52:00 51°13.599 2°56.094 0.3 22 4.2 103550 100
2007-03-14 07:52:05 51°13.599 2°56.094 0.3 19 4.3 103550 100
2007-03-14 07:52:10 51°13.599 2°56.094 0.2 19 4.3 103550 100
2007-03-14 07:52:15 51°13.599 2°56.094 0.4 350 4.3 103550 100
2007-03-14 07:52:20 51°13.599 2°56.094 0.3 356 4.3 103550 100
2007-03-14 07:52:25 51°13.599 2°56.094 0.4 360 4.3 103550 100
2007-03-14 07:52:30 51°13.599 2°56.094 0.6 5 4.3 103550 100
2007-03-14 07:52:35 51°13.599 2°56.094 0.8 -999 4.3 103550 100
2007-03-14 07:52:40 51°13.599 2°56.094 0.7 -999 4.3 103550 100
2007-03-14 07:52:45 51°13.599 2°56.094 0.7 19 4.3 103550 100
2007-03-14 07:52:50 51°13.599 2°56.094 0.5 18 4.3 103550 100
2007-03-14 07:52:55 51°13.599 2°56.094 0.5 6 4.4 103550 100
2007-03-14 07:53:00 51°13.599 2°56.094 0.6 1 4.4 103550 100
2007-03-14 07:53:05 51°13.599 2°56.094 0.5 2 4.4 103550 100
2007-03-14 07:53:10 51°13.599 2°56.094 0.6 9 4.4 103550 100
2007-03-14 07:53:15 51°13.599 2°56.094 0.5 -999 4.4 103550 100
2007-03-14 07:53:20 51°13.599 2°56.094 0.4 -999 4.4 103550 100
2007-03-14 07:53:25 51°13.599 2°56.094 0.3 -999 4.4 103550 100
2007-03-14 07:53:30 51°13.599 2°56.094 0.4 -999 4.4 103550 100
2007-03-14 07:53:35 51°13.599 2°56.094 0.4 360 4.4 103550 100
2007-03-14 07:53:40 51°13.599 2°56.094 0.4 358 4.4 103550 100
2007-03-14 07:53:45 51°13.599 2°56.094 0.7 350 4.4 103550 100
2007-03-14 07:53:50 51°13.599 2°56.094 0.6 352 4.4 103550 100
2007-03-14 07:53:55 51°13.599 2°56.094 0.4 8 4.4 103550 100
2007-03-14 07:54:00 51°13.599 2°56.094 0.3 9 4.4 103550 100
2007-03-14 07:54:05 51°13.599 2°56.094 0.3 -999 4.4 103550 100
2007-03-14 07:54:10 51°13.599 2°56.094 0.6 4 4.4 103550 100
2007-03-14 07:54:15 51°13.599 2°56.094 0.7 359 4.4 103550 100
2007-03-14 07:54:20 51°13.599 2°56.093 0.9 351 4.4 103550 100
2007-03-14 07:54:25 51°13.599 2°56.093 0.9 348 4.5 103550 100
2007-03-14 07:54:30 51°13.598 2°56.094 0.5 348 4.5 103550 100
2007-03-14 07:54:35 51°13.598 2°56.094 0.3 348 4.5 103550 100
2007-03-14 07:54:40 51°13.598 2°56.094 0.3 348 4.5 103550 100
2007-03-14 07:54:45 51°13.598 2°56.094 0.4 348 4.5 103550 100
2007-03-14 07:54:50 51°13.598 2°56.094 0.4 348 4.5 103550 100
2007-03-14 07:54:55 51°13.598 2°56.094 0.6 283 4.5 103550 100
2007-03-14 07:55:00 51°13.598 2°56.094 0.8 346 4.5 103550 100
2007-03-14 07:55:05 51°13.598 2°56.094 0.9 279 4.5 103550 100
2007-03-14 07:55:10 51°13.598 2°56.094 0.8 342 4.5 103550 100
2007-03-14 07:55:15 51°13.598 2°56.094 0.8 344 4.5 103550 100
2007-03-14 07:55:20 51°13.598 2°56.094 0.8 348 4.5 103550 100
2007-03-14 07:55:25 51°13.599 2°56.094 0.8 347 4.5 103550 100
2007-03-14 07:55:30 51°13.599 2°56.094 0.6 349 4.5 103550 100
2007-03-14 07:55:35 51°13.599 2°56.094 0.6 349 4.5 103550 100
2007-03-14 07:55:40 51°13.599 2°56.094 0.6 352 4.5 103550 100
2007-03-14 07:55:45 51°13.599 2°56.094 0.8 348 4.5 103550 100
2007-03-14 07:55:50 51°13.599 2°56.094 0.6 350 4.5 103550 100
2007-03-14 07:55:55 51°13.599 2°56.094 0.7 360 4.6 103550 100
2007-03-14 07:56:00 51°13.599 2°56.094 0.8 356 4.6 103550 100
2007-03-14 07:56:05 51°13.599 2°56.094 0.9 281 4.6 103550 100
2007-03-14 07:56:10 51°13.599 2°56.094 0.8 352 4.6 103550 100
2007-03-14 07:56:15 51°13.599 2°56.094 0.8 356 4.6 103550 100
2007-03-14 07:56:20 51°13.599 2°56.094 0.7 356 4.6 103550 100
2007-03-14 07:56:25 51°13.599 2°56.094 0.7 353 4.6 103550 100
2007-03-14 07:56:30 51°13.599 2°56.094 0.9 351 4.6 103550 100
2007-03-14 07:56:35 51°13.599 2°56.094 1.1 349 4.6 103550 100
2007-03-14 07:56:40 51°13.599 2°56.094 1.1 347 4.6 103550 100
2007-03-14 07:56:45 51°13.599 2°56.094 1 348 4.6 103550 100
2007-03-14 07:56:50 51°13.599 2°56.094 0.8 349 4.6 103550 100
2007-03-14 07:56:55 51°13.599 2°56.094 1 354 4.6 103550 100
2007-03-14 07:57:00 51°13.599 2°56.094 1 354 4.6 103550 100
2007-03-14 07:57:05 51°13.599 2°56.094 1 354 4.6 103550 100
2007-03-14 07:57:10 51°13.599 2°56.094 1 353 4.6 103550 100
2007-03-14 07:57:15 51°13.599 2°56.094 1 353 4.6 103550 100
2007-03-14 07:57:20 51°13.599 2°56.094 0.8 2 4.6 103550 100
2007-03-14 07:57:25 51°13.599 2°56.094 0.9 2 4.5 103550 100
2007-03-14 07:57:30 51°13.599 2°56.094 0.7 356 4.5 103550 100
2007-03-14 07:57:35 51°13.599 2°56.094 0.9 347 4.6 103550 100
2007-03-14 07:57:40 51°13.599 2°56.094 0.9 347 4.6 103550 100
2007-03-14 07:57:45 51°13.599 2°56.094 1 1 4.6 103550 100
2007-03-14 07:57:50 51°13.599 2°56.094 0.9 2 4.6 103550 100
2007-03-14 07:57:55 51°13.599 2°56.094 0.8 2 4.6 103550 100
2007-03-14 07:58:00 51°13.599 2°56.094 0.8 355 4.6 103550 100
2007-03-14 07:58:05 51°13.599 2°56.094 0.7 350 4.6 103550 100
2007-03-14 07:58:10 51°13.599 2°56.094 0.7 350 4.6 103550 100
2007-03-14 07:58:15 51°13.599 2°56.094 0.7 350 4.6 103550 100
2007-03-14 07:58:20 51°13.599 2°56.094 0.7 355 4.6 103550 100
2007-03-14 07:58:25 51°13.599 2°56.094 0.8 354 4.6 103550 100
2007-03-14 07:58:30 51°13.599 2°56.094 0.8 349 4.6 103550 100
2007-03-14 07:58:35 51°13.599 2°56.094 0.8 348 4.6 103550 100
2007-03-14 07:58:40 51°13.599 2°56.093 0.8 348 4.6 103550 100
2007-03-14 07:58:45 51°13.599 2°56.094 0.8 347 4.6 103550 100
2007-03-14 07:58:50 51°13.599 2°56.093 0.8 11 4.6 103550 100
2007-03-14 07:58:55 51°13.598 2°56.093 0.8 8 4.6 103550 100
2007-03-14 07:59:00 51°13.598 2°56.093 0.7 358 4.6 103550 100
2007-03-14 07:59:05 51°13.598 2°56.093 0.6 358 4.6 103550 100
2007-03-14 07:59:10 51°13.598 2°56.093 0.5 358 4.6 103550 100
2007-03-14 07:59:15 51°13.598 2°56.093 0.6 5 4.7 103550 100
2007-03-14 07:59:20 51°13.598 2°56.093 0.7 6 4.7 103550 100
2007-03-14 07:59:25 51°13.598 2°56.093 0.7 360 4.7 103550 100
2007-03-14 07:59:30 51°13.598 2°56.093 0.7 355 4.7 103550 100
2007-03-14 07:59:35 51°13.598 2°56.093 0.7 352 4.7 103550 100
2007-03-14 07:59:40 51°13.598 2°56.093 0.7 351 4.7 103550 100
2007-03-14 07:59:45 51°13.599 2°56.094 0.7 279 4.7 103550 100
2007-03-14 07:59:50 51°13.599 2°56.094 0.7 348 4.7 103550 100
2007-03-14 07:59:55 51°13.599 2°56.094 0.9 279 4.7 103550 100
2007-03-14 08:00:00 51°13.599 2°56.094 0.9 351 4.7 103550 100
2007-03-14 08:00:05 51°13.599 2°56.094 0.8 354 4.8 103550 100
2007-03-14 08:00:10 51°13.599 2°56.094 0.7 352 4.8 103550 100
2007-03-14 08:00:15 51°13.599 2°56.094 0.7 279 4.8 103550 100
2007-03-14 08:00:20 51°13.599 2°56.094 0.7 348 4.8 103550 100
2007-03-14 08:00:25 51°13.599 2°56.094 0.7 348 4.8 103550 100
2007-03-14 08:00:30 51°13.599 2°56.094 0.9 358 4.8 103550 100
2007-03-14 08:00:35 51°13.599 2°56.094 1.3 359 4.8 103550 100
2007-03-14 08:00:40 51°13.599 2°56.094 1.2 8 4.8 103550 100
2007-03-14 08:00:45 51°13.599 2°56.094 0.9 1 4.8 103550 100
2007-03-14 08:00:50 51°13.599 2°56.094 1 351 4.8 103550 100
2007-03-14 08:00:55 51°13.599 2°56.094 1 351 4.8 103550 100
2007-03-14 08:01:00 51°13.599 2°56.094 1 354 4.8 103550 100
2007-03-14 08:01:05 51°13.599 2°56.094 0.9 358 4.8 103550 100
2007-03-14 08:01:10 51°13.599 2°56.094 1 356 4.8 103550 100
2007-03-14 08:01:15 51°13.599 2°56.094 0.9 -999 4.9 103550 100
2007-03-14 08:01:20 51°13.599 2°56.094 0.9 4 4.9 103550 100
2007-03-14 08:01:25 51°13.599 2°56.094 0.9 5 4.9 103550 100
2007-03-14 08:01:30 51°13.599 2°56.094 1 1 4.9 103550 100
2007-03-14 08:01:35 51°13.599 2°56.094 0.9 359 4.9 103550 100
2007-03-14 08:01:40 51°13.599 2°56.094 1.1 354 4.9 103550 100
2007-03-14 08:01:45 51°13.599 2°56.094 1.2 1 4.9 103550 100
2007-03-14 08:01:50 51°13.599 2°56.094 1.2 1 4.9 103550 100
2007-03-14 08:01:55 51°13.599 2°56.094 0.9 7 5 103550 100
2007-03-14 08:02:00 51°13.598 2°56.094 0.9 6 5 103550 100
2007-03-14 08:02:05 51°13.598 2°56.094 0.8 4 5 103550 100
2007-03-14 08:02:10 51°13.598 2°56.094 0.6 2 5 103550 100
2007-03-14 08:02:15 51°13.598 2°56.094 0.6 -999 5 103550 100
2007-03-14 08:02:20 51°13.598 2°56.094 0.6 358 5 103550 100
2007-03-14 08:02:25 51°13.598 2°56.094 0.6 358 5 103550 100
2007-03-14 08:02:30 51°13.598 2°56.094 0.6 356 5 103550 100
2007-03-14 08:02:35 51°13.598 2°56.094 0.5 351 5 103550 100
2007-03-14 08:02:40 51°13.598 2°56.094 0.4 351 5 103550 100
2007-03-14 08:02:45 51°13.598 2°56.094 0.5 351 5 103550 100
2007-03-14 08:02:50 51°13.598 2°56.094 0.6 351 5 103550 100
2007-03-14 08:02:55 51°13.598 2°56.094 1 -999 5 103550 100
2007-03-14 08:03:00 51°13.599 2°56.094 0.9 357 5 103550 100
2007-03-14 08:03:05 51°13.599 2°56.095 0.8 356 5 103550 100
2007-03-14 08:03:10 51°13.598 2°56.095 0.8 4 5 103550 100
2007-03-14 08:03:15 51°13.598 2°56.095 0.8 4 5 103550 100
2007-03-14 08:03:20 51°13.598 2°56.095 0.9 3 5 103550 100
2007-03-14 08:03:25 51°13.598 2°56.095 0.9 7 5 103550 100
2007-03-14 08:03:30 51°13.598 2°56.095 0.8 5 5 103550 100
2007-03-14 08:03:35 51°13.598 2°56.094 0.8 359 5 103550 100
2007-03-14 08:03:40 51°13.598 2°56.095 1.2 357 5 103550 100
2007-03-14 08:03:45 51°13.598 2°56.095 1 356 5 103550 100
2007-03-14 08:03:50 51°13.598 2°56.095 0.9 356 5 103550 100
2007-03-14 08:03:55 51°13.598 2°56.095 0.9 356 5 103550 100
2007-03-14 08:04:00 51°13.598 2°56.095 0.9 357 5 103550 100
2007-03-14 08:04:05 51°13.598 2°56.095 0.9 353 5 103560 100
2007-03-14 08:04:10 51°13.599 2°56.095 0.8 355 5 103560 100
2007-03-14 08:04:15 51°13.599 2°56.095 0.8 2 5 103550 100
2007-03-14 08:04:20 51°13.599 2°56.095 0.6 13 5 103550 100
2007-03-14 08:04:25 51°13.599 2°56.095 0.6 14 5 103550 100
2007-03-14 08:04:30 51°13.599 2°56.095 0.6 12 5 103550 100
2007-03-14 08:04:35 51°13.599 2°56.095 0.5 12 5 103560 100
2007-03-14 08:04:40 51°13.599 2°56.095 0.4 6 5 103560 100
2007-03-14 08:04:45 51°13.599 2°56.095 0.7 351 5 103550 100
2007-03-14 08:04:50 51°13.599 2°56.095 0.7 5 5 103550 100
2007-03-14 08:04:55 51°13.599 2°56.095 0.7 9 5 103550 100
2007-03-14 08:05:00 51°13.599 2°56.095 0.7 7 5 103550 100
2007-03-14 08:05:05 51°13.599 2°56.095 0.8 10 5.1 103560 100
2007-03-14 08:05:10 51°13.599 2°56.095 0.8 7 5.1 103560 100
2007-03-14 08:05:15 51°13.599 2°56.095 1.1 3 5.1 103560 100
2007-03-14 08:05:20 51°13.599 2°56.095 0.9 3 5.1 103560 100
2007-03-14 08:05:25 51°13.599 2°56.096 0.9 5 5.1 103550 100
2007-03-14 08:05:30 51°13.599 2°56.096 1.1 7 5.1 103550 100
2007-03-14 08:05:35 51°13.599 2°56.095 0.9 1 5.1 103560 100
2007-03-14 08:05:40 51°13.599 2°56.095 0.8 1 5.1 103560 100
2007-03-14 08:05:45 51°13.599 2°56.095 0.7 1 5.1 103560 100
2007-03-14 08:05:50 51°13.599 2°56.095 0.7 1 5.1 103560 100
2007-03-14 08:05:55 51°13.599 2°56.095 0.7 -999 5.1 103560 100
2007-03-14 08:06:00 51°13.599 2°56.095 0.9 347 5.1 103560 100
2007-03-14 08:06:05 51°13.599 2°56.095 1.3 278 5.1 103560 100
2007-03-14 08:06:10 51°13.598 2°56.095 1.4 358 5.1 103560 100
2007-03-14 08:06:15 51°13.598 2°56.095 1.2 -999 5.1 103560 100
2007-03-14 08:06:20 51°13.598 2°56.095 0.8 19 5.1 103560 100
2007-03-14 08:06:25 51°13.598 2°56.095 0.9 19 5.1 103560 100
2007-03-14 08:06:30 51°13.598 2°56.095 0.9 29 5.1 103560 100
2007-03-14 08:06:35 51°13.597 2°56.094 0.8 29 5.1 103560 100
2007-03-14 08:06:40 51°13.597 2°56.094 0.6 29 5.1 103560 100
2007-03-14 08:06:45 51°13.597 2°56.094 0.6 31 5.1 103560 100
2007-03-14 08:06:50 51°13.597 2°56.094 0.7 24 5.1 103560 100
2007-03-14 08:06:55 51°13.597 2°56.094 0.4 23 5.1 103560 100
2007-03-14 08:07:00 51°13.597 2°56.094 0.6 20 5.1 103560 100
2007-03-14 08:07:05 51°13.597 2°56.094 0.6 20 5.1 103560 100
2007-03-14 08:07:10 51°13.597 2°56.094 0.6 6 5.1 103560 100
2007-03-14 08:07:15 51°13.597 2°56.094 0.5 6 5.1 103560 100
2007-03-14 08:07:20 51°13.597 2°56.094 0.6 359 5.1 103560 100
2007-03-14 08:07:25 51°13.597 2°56.094 0.6 351 5.1 103560 100
2007-03-14 08:07:30 51°13.597 2°56.094 0.6 356 5.1 103560 100
2007-03-14 08:07:35 51°13.597 2°56.094 0.6 353 5.1 103560 100
2007-03-14 08:07:40 51°13.597 2°56.094 0.7 351 5.1 103560 100
2007-03-14 08:07:45 51°13.597 2°56.094 0.7 350 5.1 103560 100
2007-03-14 08:07:50 51°13.597 2°56.094 0.6 352 5.1 103560 100
2007-03-14 08:07:55 51°13.597 2°56.094 0.6 353 5.1 103560 100
2007-03-14 08:08:00 51°13.597 2°56.094 0.6 351 5.1 103560 100
2007-03-14 08:08:05 51°13.597 2°56.094 0.6 5 5.1 103560 100
2007-03-14 08:08:10 51°13.597 2°56.094 0.5 12 5.1 103560 100
2007-03-14 08:08:15 51°13.597 2°56.094 0.4 25 5.1 103560 100
2007-03-14 08:08:20 51°13.597 2°56.094 0.4 27 5.1 103560 100
2007-03-14 08:08:25 51°13.597 2°56.094 0.4 26 5.1 103560 100
2007-03-14 08:08:30 51°13.597 2°56.094 0.7 31 5.1 103560 100
2007-03-14 08:08:35 51°13.597 2°56.094 0.5 26 5.1 103560 100
2007-03-14 08:08:40 51°13.597 2°56.094 0.5 26 5.1 103560 100
2007-03-14 08:08:45 51°13.597 2°56.093 0.8 20 5.2 103560 100
2007-03-14 08:08:50 51°13.597 2°56.093 0.7 17 5.2 103560 100
2007-03-14 08:08:55 51°13.597 2°56.093 0.6 12 5.2 103560 100
2007-03-14 08:09:00 51°13.597 2°56.093 0.5 12 5.2 103560 100
2007-03-14 08:09:05 51°13.597 2°56.093 0.5 12 5.2 103560 100
2007-03-14 08:09:10 51°13.597 2°56.093 0.4 12 5.2 103560 100
2007-03-14 08:09:15 51°13.597 2°56.093 0.4 12 5.2 103560 100
2007-03-14 08:09:20 51°13.597 2°56.093 0.4 12 5.2 103560 100
2007-03-14 08:09:25 51°13.597 2°56.093 0.4 11 5.2 103560 100
2007-03-14 08:09:30 51°13.597 2°56.093 0.2 11 5.2 103560 100
2007-03-14 08:09:35 51°13.597 2°56.093 0.2 11 5.2 103560 100
2007-03-14 08:09:40 51°13.597 2°56.093 0.2 8 5.2 103560 100
2007-03-14 08:09:45 51°13.597 2°56.093 0.7 22 5.2 103560 100
2007-03-14 08:09:50 51°13.597 2°56.093 0.7 17 5.2 103560 100
2007-03-14 08:09:55 51°13.597 2°56.093 0.7 27 5.2 103560 100
2007-03-14 08:10:00 51°13.597 2°56.093 0.7 12 5.2 103560 100
2007-03-14 08:10:05 51°13.597 2°56.093 0.5 12 5.2 103560 100
2007-03-14 08:10:10 51°13.597 2°56.093 0.4 20 5.2 103560 100
2007-03-14 08:10:15 51°13.597 2°56.093 0.4 20 5.2 103560 100
2007-03-14 08:10:20 51°13.597 2°56.093 0.3 20 5.2 103560 100
2007-03-14 08:10:25 51°13.597 2°56.093 0.5 18 5.2 103560 100
2007-03-14 08:10:30 51°13.597 2°56.093 0.4 10 5.2 103560 100
2007-03-14 08:10:35 51°13.597 2°56.093 0.9 14 5.2 103560 100
2007-03-14 08:10:40 51°13.597 2°56.093 1.4 18 5.2 103560 100
2007-03-14 08:10:45 51°13.597 2°56.093 1 9 5.2 103560 100
2007-03-14 08:10:50 51°13.597 2°56.093 0.9 9 5.2 103560 100
2007-03-14 08:10:55 51°13.597 2°56.093 0.8 8 5.2 103560 100
2007-03-14 08:11:00 51°13.597 2°56.093 0.8 27 5.2 103560 100
2007-03-14 08:11:05 51°13.597 2°56.093 0.6 28 5.2 103560 100
2007-03-14 08:11:10 51°13.597 2°56.093 0.8 9 5.2 103560 100
2007-03-14 08:11:15 51°13.597 2°56.093 1 22 5.2 103570 100
2007-03-14 08:11:20 51°13.597 2°56.093 1 23 5.2 103570 100
2007-03-14 08:11:25 51°13.597 2°56.093 0.8 24 5.3 103560 100
2007-03-14 08:11:30 51°13.597 2°56.093 0.9 20 5.3 103560 100
2007-03-14 08:11:35 51°13.597 2°56.093 0.9 20 5.3 103570 100
2007-03-14 08:11:40 51°13.597 2°56.093 1.1 9 5.3 103570 100
2007-03-14 08:11:45 51°13.597 2°56.094 1.1 3 5.3 103560 100
2007-03-14 08:11:50 51°13.598 2°56.093 0.9 3 5.3 103560 100
2007-03-14 08:11:55 51°13.598 2°56.094 0.9 5 5.3 103560 100
2007-03-14 08:12:00 51°13.598 2°56.094 1.1 13 5.3 103560 100
2007-03-14 08:12:05 51°13.598 2°56.094 1.1 16 5.3 103560 100
2007-03-14 08:12:10 51°13.598 2°56.094 0.9 15 5.3 103560 100
2007-03-14 08:12:15 51°13.598 2°56.094 0.9 16 5.3 103560 100
2007-03-14 08:12:20 51°13.598 2°56.094 0.9 12 5.3 103560 100
2007-03-14 08:12:25 51°13.598 2°56.094 0.9 14 5.3 103560 100
2007-03-14 08:12:30 51°13.598 2°56.094 0.9 18 5.3 103560 100
2007-03-14 08:12:35 51°13.598 2°56.094 1.2 16 5.3 103560 100
2007-03-14 08:12:40 51°13.598 2°56.094 1 20 5.3 103560 100
2007-03-14 08:12:45 51°13.598 2°56.094 1 15 5.3 103560 100
2007-03-14 08:12:50 51°13.598 2°56.094 1.1 25 5.3 103560 100
2007-03-14 08:12:55 51°13.598 2°56.094 0.9 24 5.3 103570 100
2007-03-14 08:13:00 51°13.598 2°56.094 0.8 26 5.3 103570 100
2007-03-14 08:13:05 51°13.598 2°56.094 0.7 26 5.3 103560 100
2007-03-14 08:13:10 51°13.598 2°56.094 0.8 17 5.3 103560 100
2007-03-14 08:13:15 51°13.598 2°56.094 0.9 32 5.3 103570 100
2007-03-14 08:13:20 51°13.598 2°56.094 0.8 32 5.3 103570 100
2007-03-14 08:13:25 51°13.598 2°56.094 0.8 27 5.3 103560 100
2007-03-14 08:13:30 51°13.598 2°56.094 0.9 23 5.3 103560 100
2007-03-14 08:13:35 51°13.598 2°56.094 0.9 25 5.3 103570 100
2007-03-14 08:13:40 51°13.598 2°56.094 0.8 32 5.3 103570 100
2007-03-14 08:13:45 51°13.598 2°56.093 0.6 35 5.3 103560 100
2007-03-14 08:13:50 51°13.598 2°56.093 0.6 32 5.3 103560 100
2007-03-14 08:13:55 51°13.598 2°56.093 0.6 28 5.3 103560 100
2007-03-14 08:14:00 51°13.598 2°56.093 0.5 23 5.3 103560 100
2007-03-14 08:14:05 51°13.598 2°56.093 0.4 14 5.3 103570 100
2007-03-14 08:14:10 51°13.597 2°56.093 0.4 14 5.3 103570 100
2007-03-14 08:14:15 51°13.597 2°56.093 0.4 14 5.3 103570 100
2007-03-14 08:14:20 51°13.597 2°56.093 0.3 14 5.3 103570 100
2007-03-14 08:14:25 51°13.597 2°56.093 0.3 18 5.3 103570 100
2007-03-14 08:14:30 51°13.597 2°56.093 0.6 26 5.3 103570 100
2007-03-14 08:14:35 51°13.597 2°56.093 0.6 25 5.3 103560 100
2007-03-14 08:14:40 51°13.597 2°56.093 0.6 25 5.3 103560 100
2007-03-14 08:14:45 51°13.598 2°56.093 0.6 10 5.3 103560 100
2007-03-14 08:14:50 51°13.598 2°56.093 0.9 14 5.3 103560 100
2007-03-14 08:14:55 51°13.598 2°56.093 0.7 15 5.3 103560 100
2007-03-14 08:15:00 51°13.598 2°56.093 0.7 15 5.3 103560 100
2007-03-14 08:15:05 51°13.598 2°56.093 0.7 15 5.4 103560 100
2007-03-14 08:15:10 51°13.598 2°56.093 0.6 15 5.4 103560 100
2007-03-14 08:15:15 51°13.598 2°56.093 0.7 18 5.4 103560 100
2007-03-14 08:15:20 51°13.598 2°56.094 0.6 19 5.4 103560 100
2007-03-14 08:15:25 51°13.598 2°56.094 0.6 18 5.4 103570 100
2007-03-14 08:15:30 51°13.598 2°56.094 0.7 18 5.4 103570 100
2007-03-14 08:15:35 51°13.598 2°56.094 0.7 17 5.4 103560 100
2007-03-14 08:15:40 51°13.598 2°56.094 0.8 19 5.4 103560 100
2007-03-14 08:15:45 51°13.598 2°56.094 0.6 19 5.4 103570 100
2007-03-14 08:15:50 51°13.598 2°56.094 0.7 17 5.4 103570 100
2007-03-14 08:15:55 51°13.598 2°56.094 0.6 16 5.4 103560 100
2007-03-14 08:16:00 51°13.598 2°56.093 0.6 18 5.4 103560 100
2007-03-14 08:16:05 51°13.599 2°56.094 0.7 20 5.4 103570 100
2007-03-14 08:16:10 51°13.599 2°56.094 0.7 22 5.4 103570 100
2007-03-14 08:16:15 51°13.599 2°56.094 0.6 22 5.5 103570 100
2007-03-14 08:16:20 51°13.599 2°56.093 0.5 22 5.5 103570 100
2007-03-14 08:16:25 51°13.599 2°56.093 0.6 22 5.5 103570 100
2007-03-14 08:16:30 51°13.599 2°56.093 0.6 25 5.5 103570 100
2007-03-14 08:16:35 51°13.599 2°56.093 0.6 25 5.5 103570 100
2007-03-14 08:16:40 51°13.599 2°56.093 0.6 16 5.5 103570 100
2007-03-14 08:16:45 51°13.599 2°56.093 0.5 19 5.5 103560 100
2007-03-14 08:16:50 51°13.599 2°56.093 0.6 26 5.5 103560 100
2007-03-14 08:16:55 51°13.599 2°56.093 0.7 25 5.5 103570 100
2007-03-14 08:17:00 51°13.599 2°56.093 0.6 14 5.5 103570 100
2007-03-14 08:17:05 51°13.599 2°56.093 0.4 15 5.5 103570 100
2007-03-14 08:17:10 51°13.599 2°56.094 0.4 19 5.5 103570 100
2007-03-14 08:17:15 51°13.599 2°56.094 0.5 26 5.5 103560 100
2007-03-14 08:17:20 51°13.599 2°56.094 0.5 25 5.5 103560 100
2007-03-14 08:17:25 51°13.599 2°56.094 0.7 21 5.5 103570 100
2007-03-14 08:17:30 51°13.599 2°56.094 0.4 20 5.5 103570 100
2007-03-14 08:17:35 51°13.599 2°56.094 0.5 14 5.5 103570 100
2007-03-14 08:17:40 51°13.598 2°56.094 0.5 14 5.5 103570 100
2007-03-14 08:17:45 51°13.598 2°56.094 0.5 13 5.5 103560 100
2007-03-14 08:17:50 51°13.598 2°56.094 0.6 16 5.5 103560 100
2007-03-14 08:17:55 51°13.598 2°56.094 0.8 9 5.6 103570 100
2007-03-14 08:18:00 51°13.598 2°56.094 0.8 11 5.6 103570 100
2007-03-14 08:18:05 51°13.598 2°56.094 0.9 11 5.6 103570 100
2007-03-14 08:18:10 51°13.598 2°56.094 0.7 11 5.6 103570 100
2007-03-14 08:18:15 51°13.598 2°56.094 0.6 6 5.6 103570 100
2007-03-14 08:18:20 51°13.598 2°56.094 0.7 6 5.6 103570 100
2007-03-14 08:18:25 51°13.598 2°56.094 0.7 10 5.6 103560 100
2007-03-14 08:18:30 51°13.598 2°56.094 0.7 14 5.6 103560 100
2007-03-14 08:18:35 51°13.598 2°56.094 0.9 21 5.6 103560 100
2007-03-14 08:18:40 51°13.598 2°56.094 1.1 15 5.6 103560 100
2007-03-14 08:18:45 51°13.598 2°56.094 0.8 15 5.6 103560 100
2007-03-14 08:18:50 51°13.598 2°56.094 0.6 19 5.6 103560 100
2007-03-14 08:18:55 51°13.598 2°56.094 0.6 18 5.7 103570 100
2007-03-14 08:19:00 51°13.597 2°56.094 0.7 18 5.7 103570 100
2007-03-14 08:19:05 51°13.597 2°56.094 0.6 18 5.7 103560 100
2007-03-14 08:19:10 51°13.597 2°56.094 0.7 18 5.7 103560 100
2007-03-14 08:19:15 51°13.597 2°56.094 0.7 21 5.7 103570 100
2007-03-14 08:19:20 51°13.597 2°56.094 0.6 22 5.7 103570 100
2007-03-14 08:19:25 51°13.597 2°56.094 0.6 24 5.7 103570 100
2007-03-14 08:19:30 51°13.597 2°56.094 0.6 25 5.7 103570 100
2007-03-14 08:19:35 51°13.597 2°56.094 0.6 25 5.7 103570 100
2007-03-14 08:19:40 51°13.597 2°56.094 0.5 25 5.7 103570 100
2007-03-14 08:19:45 51°13.597 2°56.094 0.4 26 5.7 103570 100
2007-03-14 08:19:50 51°13.597 2°56.094 0.4 26 5.7 103570 100
2007-03-14 08:19:55 51°13.597 2°56.094 0.8 19 5.8 103570 100
2007-03-14 08:20:00 51°13.597 2°56.094 0.8 18 5.8 103570 100
2007-03-14 08:20:05 51°13.597 2°56.094 0.9 15 5.8 103570 100
2007-03-14 08:20:10 51°13.597 2°56.094 0.7 15 5.8 103570 100
2007-03-14 08:20:15 51°13.597 2°56.094 0.6 15 5.8 103570 100
2007-03-14 08:20:20 51°13.597 2°56.094 0.9 19 5.8 103570 100
2007-03-14 08:20:25 51°13.597 2°56.094 1 20 5.8 103570 100
2007-03-14 08:20:30 51°13.597 2°56.094 0.6 25 5.8 103570 100
2007-03-14 08:20:35 51°13.597 2°56.094 0.8 24 5.8 103560 100
2007-03-14 08:20:40 51°13.597 2°56.093 0.9 18 5.8 103560 100
2007-03-14 08:20:45 51°13.597 2°56.093 0.8 24 5.8 103570 100
2007-03-14 08:20:50 51°13.597 2°56.093 0.8 26 5.8 103570 100
2007-03-14 08:20:55 51°13.597 2°56.093 0.8 19 5.8 103570 100
2007-03-14 08:21:00 51°13.597 2°56.093 0.8 22 5.8 103570 100
2007-03-14 08:21:05 51°13.597 2°56.093 0.9 34 5.9 103570 100
2007-03-14 08:21:10 51°13.597 2°56.093 0.9 32 5.9 103570 100
2007-03-14 08:21:15 51°13.597 2°56.093 0.9 23 5.9 103570 100
2007-03-14 08:21:20 51°13.597 2°56.093 0.7 24 5.9 103570 100
2007-03-14 08:21:25 51°13.597 2°56.093 0.7 24 5.9 103570 100
2007-03-14 08:21:30 51°13.597 2°56.093 0.8 35 5.9 103570 100
2007-03-14 08:21:35 51°13.597 2°56.093 0.9 35 5.9 103570 100
2007-03-14 08:21:40 51°13.597 2°56.093 0.8 28 5.9 103570 100
2007-03-14 08:21:45 51°13.597 2°56.093 1.1 37 5.9 103570 100
2007-03-14 08:21:50 51°13.597 2°56.093 1 33 5.9 103570 100
2007-03-14 08:21:55 51°13.597 2°56.093 0.9 28 5.9 103570 100
2007-03-14 08:22:00 51°13.598 2°56.093 1.1 30 5.9 103570 100
2007-03-14 08:22:05 51°13.598 2°56.093 1.4 23 6 103570 100
2007-03-14 08:22:10 51°13.598 2°56.093 0.9 24 6 103570 100
2007-03-14 08:22:15 51°13.598 2°56.093 0.6 34 6 103570 100
2007-03-14 08:22:20 51°13.598 2°56.093 0.5 25 6 103570 100
2007-03-14 08:22:25 51°13.598 2°56.093 0.4 25 6 103570 100
2007-03-14 08:22:30 51°13.598 2°56.093 0.6 20 6 103570 100
2007-03-14 08:22:35 51°13.598 2°56.093 0.6 20 6 103570 100
2007-03-14 08:22:40 51°13.598 2°56.093 1 25 6 103570 100
2007-03-14 08:22:45 51°13.598 2°56.093 1 25 6 103570 100
2007-03-14 08:22:50 51°13.598 2°56.093 0.9 24 6 103570 100
2007-03-14 08:22:55 51°13.598 2°56.093 1 26 6 103570 100
2007-03-14 08:23:00 51°13.598 2°56.093 1 26 6 103570 100
2007-03-14 08:23:05 51°13.599 2°56.093 0.9 30 6 103570 100
2007-03-14 08:23:10 51°13.599 2°56.093 0.9 37 6 103570 100
2007-03-14 08:23:15 51°13.599 2°56.093 0.7 34 6 103570 100
2007-03-14 08:23:20 51°13.599 2°56.093 0.5 30 6 103570 100
2007-03-14 08:23:25 51°13.599 2°56.093 0.6 33 6.1 103570 100
2007-03-14 08:23:30 51°13.599 2°56.093 0.9 38 6.1 103570 100
2007-03-14 08:23:35 51°13.599 2°56.093 1.1 37 6.1 103570 100
2007-03-14 08:23:40 51°13.599 2°56.093 1.2 38 6.1 103570 100
2007-03-14 08:23:45 51°13.599 2°56.093 1 30 6.1 103570 100
2007-03-14 08:23:50 51°13.599 2°56.093 1.2 33 6.1 103570 100
2007-03-14 08:23:55 51°13.599 2°56.093 1.1 31 6.1 103570 100
2007-03-14 08:24:00 51°13.599 2°56.093 1 30 6.1 103570 100
2007-03-14 08:24:05 51°13.599 2°56.093 0.9 23 6.1 103570 100
2007-03-14 08:24:10 51°13.599 2°56.093 0.9 23 6.1 103570 100
2007-03-14 08:24:15 51°13.599 2°56.094 0.9 22 6.1 103570 100
2007-03-14 08:24:20 51°13.599 2°56.094 0.8 22 6.1 103570 100
2007-03-14 08:24:25 51°13.599 2°56.094 0.8 22 6.1 103570 100
2007-03-14 08:24:30 51°13.599 2°56.094 0.8 24 6.1 103570 100
2007-03-14 08:24:35 51°13.599 2°56.094 0.8 28 6.2 103570 100
2007-03-14 08:24:40 51°13.599 2°56.094 0.7 27 6.2 103570 100
2007-03-14 08:24:45 51°13.599 2°56.094 0.7 23 6.1 103570 100
2007-03-14 08:24:50 51°13.599 2°56.094 0.8 23 6.1 103570 100
2007-03-14 08:24:55 51°13.599 2°56.094 0.8 23 6.2 103570 100
2007-03-14 08:25:00 51°13.599 2°56.094 0.7 25 6.2 103570 100
2007-03-14 08:25:05 51°13.6 2°56.094 0.8 32 6.2 103570 100
2007-03-14 08:25:10 51°13.6 2°56.094 0.9 29 6.2 103570 100
2007-03-14 08:25:15 51°13.6 2°56.094 1 23 6.2 103570 100
2007-03-14 08:25:20 51°13.6 2°56.094 0.9 23 6.2 103570 100
2007-03-14 08:25:25 51°13.6 2°56.094 0.9 23 6.2 103570 100
2007-03-14 08:25:30 51°13.6 2°56.094 0.9 23 6.2 103570 100
2007-03-14 08:25:35 51°13.6 2°56.094 0.9 19 6.2 103570 100
2007-03-14 08:25:40 51°13.6 2°56.094 1 18 6.2 103570 100
2007-03-14 08:25:45 51°13.6 2°56.094 1 23 6.2 103580 100
2007-03-14 08:25:50 51°13.6 2°56.094 0.9 24 6.2 103580 100
2007-03-14 08:25:55 51°13.6 2°56.094 0.9 26 6.2 103570 100
2007-03-14 08:26:00 51°13.6 2°56.094 0.8 31 6.2 103570 100
2007-03-14 08:26:05 51°13.6 2°56.094 0.8 35 6.2 103570 100
2007-03-14 08:26:10 51°13.6 2°56.095 0.6 29 6.2 103570 100
2007-03-14 08:26:15 51°13.6 2°56.095 0.7 30 6.2 103570 100
2007-03-14 08:26:20 51°13.6 2°56.095 0.8 30 6.2 103570 100
2007-03-14 08:26:25 51°13.6 2°56.095 0.9 30 6.2 103570 100
2007-03-14 08:26:30 51°13.6 2°56.095 0.7 25 6.2 103570 100
2007-03-14 08:26:35 51°13.6 2°56.094 0.9 28 6.3 103570 100
2007-03-14 08:26:40 51°13.6 2°56.094 0.8 31 6.3 103570 100
2007-03-14 08:26:45 51°13.6 2°56.094 0.7 30 6.3 103570 100
2007-03-14 08:26:50 51°13.6 2°56.094 0.9 29 6.3 103570 100
2007-03-14 08:26:55 51°13.6 2°56.094 0.8 18 6.3 103570 100
2007-03-14 08:27:00 51°13.6 2°56.094 0.8 18 6.3 103570 100
2007-03-14 08:27:05 51°13.6 2°56.094 0.8 28 6.3 103570 100
2007-03-14 08:27:10 51°13.6 2°56.094 0.7 27 6.3 103570 100
2007-03-14 08:27:15 51°13.6 2°56.094 0.9 22 6.3 103570 100
2007-03-14 08:27:20 51°13.599 2°56.094 0.8 20 6.3 103570 100
2007-03-14 08:27:25 51°13.599 2°56.094 0.7 20 6.3 103580 100
2007-03-14 08:27:30 51°13.599 2°56.094 1.1 27 6.3 103580 100
2007-03-14 08:27:35 51°13.599 2°56.094 1.1 26 6.3 103580 100
2007-03-14 08:27:40 51°13.599 2°56.094 0.9 25 6.3 103580 100
2007-03-14 08:27:45 51°13.599 2°56.094 1.1 18 6.4 103570 100
2007-03-14 08:27:50 51°13.599 2°56.094 1.1 20 6.4 103570 100
2007-03-14 08:27:55 51°13.599 2°56.094 1.1 25 6.4 103570 100
2007-03-14 08:28:00 51°13.599 2°56.094 1 24 6.4 103570 100
2007-03-14 08:28:05 51°13.599 2°56.095 1.1 24 6.4 103570 100
2007-03-14 08:28:10 51°13.599 2°56.095 1 27 6.4 103570 100
2007-03-14 08:28:15 51°13.599 2°56.095 0.8 20 6.4 103580 100
2007-03-14 08:28:20 51°13.599 2°56.095 0.9 22 6.4 103580 100
2007-03-14 08:28:25 51°13.599 2°56.095 1 27 6.4 103580 100
2007-03-14 08:28:30 51°13.599 2°56.095 1 21 6.4 103580 100
2007-03-14 08:28:35 51°13.599 2°56.095 1.1 29 6.4 103580 100
2007-03-14 08:28:40 51°13.599 2°56.095 1.1 29 6.4 103580 100
2007-03-14 08:28:45 51°13.599 2°56.095 1.1 28 6.4 103580 100
2007-03-14 08:28:50 51°13.599 2°56.095 1.4 31 6.4 103580 100
2007-03-14 08:28:55 51°13.599 2°56.095 1.1 26 6.4 103580 100
2007-03-14 08:29:00 51°13.599 2°56.094 1.1 23 6.4 103580 100
2007-03-14 08:29:05 51°13.599 2°56.094 0.9 21 6.4 103570 100
2007-03-14 08:29:10 51°13.598 2°56.094 0.8 24 6.4 103570 100
2007-03-14 08:29:15 51°13.598 2°56.094 0.9 18 6.5 103580 100
2007-03-14 08:29:20 51°13.598 2°56.094 0.9 15 6.5 103580 100
2007-03-14 08:29:25 51°13.598 2°56.094 0.8 17 6.5 103580 100
2007-03-14 08:29:30 51°13.598 2°56.094 1.1 26 6.5 103580 100
2007-03-14 08:29:35 51°13.598 2°56.094 0.8 21 6.5 103580 100
2007-03-14 08:29:40 51°13.598 2°56.094 1.2 24 6.5 103580 100
2007-03-14 08:29:45 51°13.598 2°56.094 1.1 23 6.5 103570 100
2007-03-14 08:29:50 51°13.598 2°56.094 1 25 6.5 103570 100
2007-03-14 08:29:55 51°13.598 2°56.094 1.2 29 6.5 103580 100
2007-03-14 08:30:00 51°13.598 2°56.094 1.3 29 6.5 103580 100
2007-03-14 08:30:05 51°13.598 2°56.094 1.2 27 6.5 103580 100
2007-03-14 08:30:10 51°13.598 2°56.094 1.2 27 6.5 103580 100
2007-03-14 08:30:15 51°13.598 2°56.094 1.2 20 6.5 103580 100
2007-03-14 08:30:20 51°13.598 2°56.094 1.1 22 6.5 103580 100
2007-03-14 08:30:25 51°13.598 2°56.094 1.1 25 6.5 103580 100
2007-03-14 08:30:30 51°13.598 2°56.094 1.5 41 6.5 103580 100
2007-03-14 08:30:35 51°13.598 2°56.094 1.5 40 6.6 103580 100
2007-03-14 08:30:40 51°13.598 2°56.094 1.5 37 6.6 103580 100
2007-03-14 08:30:45 51°13.598 2°56.094 1 43 6.6 103570 100
2007-03-14 08:30:50 51°13.598 2°56.094 0.9 36 6.6 103570 100
2007-03-14 08:30:55 51°13.599 2°56.094 1 24 6.6 103570 100
2007-03-14 08:31:00 51°13.599 2°56.094 1 23 6.6 103570 100
2007-03-14 08:31:05 51°13.599 2°56.094 1 20 6.6 103570 100
2007-03-14 08:31:10 51°13.599 2°56.094 1.1 34 6.6 103570 100
2007-03-14 08:31:15 51°13.599 2°56.094 1.3 34 6.6 103570 100
2007-03-14 08:31:20 51°13.599 2°56.094 1.2 35 6.6 103570 100
2007-03-14 08:31:25 51°13.599 2°56.094 1.1 39 6.6 103580 100
2007-03-14 08:31:30 51°13.599 2°56.094 0.9 13 6.6 103580 100
2007-03-14 08:31:35 51°13.599 2°56.094 1 18 6.6 103570 100
2007-03-14 08:31:40 51°13.599 2°56.094 1 21 6.6 103570 100
2007-03-14 08:31:45 51°13.599 2°56.094 1.1 20 6.7 103570 100
2007-03-14 08:31:50 51°13.599 2°56.094 0.8 15 6.7 103570 100
2007-03-14 08:31:55 51°13.599 2°56.094 1.1 19 6.7 103570 100
2007-03-14 08:32:00 51°13.599 2°56.094 1.1 19 6.7 103570 100
2007-03-14 08:32:05 51°13.599 2°56.094 1 25 6.7 103570 100
2007-03-14 08:32:10 51°13.599 2°56.094 0.7 22 6.7 103570 100
2007-03-14 08:32:15 51°13.599 2°56.094 1.1 20 6.7 103570 100
2007-03-14 08:32:20 51°13.599 2°56.094 0.9 13 6.7 103570 100
2007-03-14 08:32:25 51°13.599 2°56.094 0.9 13 6.7 103570 100
2007-03-14 08:32:30 51°13.599 2°56.094 0.9 13 6.7 103570 100
2007-03-14 08:32:35 51°13.599 2°56.094 1 18 6.7 103580 100
2007-03-14 08:32:40 51°13.599 2°56.094 1.3 23 6.7 103580 100
2007-03-14 08:32:45 51°13.599 2°56.094 1.1 21 6.7 103570 100
2007-03-14 08:32:50 51°13.599 2°56.094 1.1 18 6.7 103570 100
2007-03-14 08:32:55 51°13.599 2°56.094 1.1 15 6.7 103570 100
2007-03-14 08:33:00 51°13.599 2°56.094 0.8 15 6.7 103570 100
2007-03-14 08:33:05 51°13.599 2°56.094 0.8 13 6.8 103570 100
2007-03-14 08:33:10 51°13.599 2°56.094 0.9 19 6.8 103570 100
2007-03-14 08:33:15 51°13.599 2°56.094 1.2 22 6.8 103570 100
2007-03-14 08:33:20 51°13.599 2°56.094 1.2 25 6.8 103570 100
2007-03-14 08:33:25 51°13.599 2°56.094 1.2 25 6.8 103570 100
2007-03-14 08:33:30 51°13.599 2°56.094 1.1 21 6.8 103570 100
2007-03-14 08:33:35 51°13.599 2°56.094 1.2 15 6.8 103570 100
2007-03-14 08:33:40 51°13.599 2°56.094 1.1 16 6.8 103570 100
2007-03-14 08:33:45 51°13.599 2°56.094 1 19 6.8 103570 100
2007-03-14 08:33:50 51°13.599 2°56.094 1.1 18 6.8 103570 100
2007-03-14 08:33:55 51°13.599 2°56.094 1.1 20 6.8 103570 100
2007-03-14 08:34:00 51°13.599 2°56.094 1.1 33 6.8 103570 100
2007-03-14 08:34:05 51°13.599 2°56.094 1.2 30 6.8 103570 100
2007-03-14 08:34:10 51°13.599 2°56.094 1.2 30 6.8 103570 100
2007-03-14 08:34:15 51°13.599 2°56.094 1 27 6.8 103570 100
2007-03-14 08:34:20 51°13.599 2°56.094 0.9 21 6.8 103570 100
2007-03-14 08:34:25 51°13.599 2°56.094 0.9 19 6.8 103570 100
2007-03-14 08:34:30 51°13.599 2°56.094 1.2 20 6.8 103570 100
2007-03-14 08:34:35 51°13.599 2°56.094 0.9 18 6.8 103570 100
2007-03-14 08:34:40 51°13.599 2°56.094 1.1 22 6.8 103570 100
2007-03-14 08:34:45 51°13.599 2°56.094 1.2 16 6.9 103570 100
2007-03-14 08:34:50 51°13.599 2°56.094 1.1 17 6.9 103570 100
2007-03-14 08:34:55 51°13.599 2°56.094 1.1 18 6.9 103570 100
2007-03-14 08:35:00 51°13.599 2°56.094 1.1 14 6.9 103570 100
2007-03-14 08:35:05 51°13.599 2°56.094 1 15 6.9 103580 100
2007-03-14 08:35:10 51°13.599 2°56.094 0.9 21 6.9 103580 100
2007-03-14 08:35:15 51°13.598 2°56.094 1.3 26 6.9 103570 100
2007-03-14 08:35:20 51°13.598 2°56.094 1.3 32 6.9 103570 100
2007-03-14 08:35:25 51°13.598 2°56.094 1.2 27 6.9 103570 100
2007-03-14 08:35:30 51°13.598 2°56.094 1 29 6.9 103570 100
2007-03-14 08:35:35 51°13.598 2°56.094 1.1 17 6.9 103570 100
2007-03-14 08:35:40 51°13.598 2°56.094 0.8 25 6.9 103570 100
2007-03-14 08:35:45 51°13.599 2°56.094 1.1 26 6.9 103580 100
2007-03-14 08:35:50 51°13.599 2°56.094 1 30 6.9 103580 100
2007-03-14 08:35:55 51°13.599 2°56.094 1.3 33 6.9 103580 100
2007-03-14 08:36:00 51°13.599 2°56.094 1.2 21 6.9 103580 100
2007-03-14 08:36:05 51°13.599 2°56.094 1.2 19 6.9 103580 100
2007-03-14 08:36:10 51°13.599 2°56.094 0.9 26 6.9 103580 100
2007-03-14 08:36:15 51°13.599 2°56.094 0.9 13 6.9 103570 100
2007-03-14 08:36:20 51°13.599 2°56.094 0.9 11 6.9 103570 100
2007-03-14 08:36:25 51°13.599 2°56.094 1 10 7 103580 100
2007-03-14 08:36:30 51°13.599 2°56.094 0.8 12 7 103580 100
2007-03-14 08:36:35 51°13.599 2°56.094 0.8 21 7 103580 100
2007-03-14 08:36:40 51°13.599 2°56.094 1.1 14 7 103580 100
2007-03-14 08:36:45 51°13.599 2°56.095 1.3 11 7 103580 100
2007-03-14 08:36:50 51°13.599 2°56.095 1.1 11 7 103580 100
2007-03-14 08:36:55 51°13.599 2°56.095 1.2 13 7 103580 100
2007-03-14 08:37:00 51°13.599 2°56.095 1.2 19 7 103580 100
2007-03-14 08:37:05 51°13.599 2°56.094 0.9 22 7 103580 100
2007-03-14 08:37:10 51°13.599 2°56.094 0.9 20 7 103580 100
2007-03-14 08:37:15 51°13.599 2°56.094 0.8 16 7 103570 100
2007-03-14 08:37:20 51°13.599 2°56.094 0.9 16 7 103570 100
2007-03-14 08:37:25 51°13.599 2°56.094 0.8 20 7 103580 100
2007-03-14 08:37:30 51°13.599 2°56.094 1 15 7 103580 100
2007-03-14 08:37:35 51°13.599 2°56.094 0.8 19 7.1 103580 100
2007-03-14 08:37:40 51°13.599 2°56.094 1 29 7.1 103580 100
2007-03-14 08:37:45 51°13.599 2°56.094 0.7 24 7.1 103580 100
2007-03-14 08:37:50 51°13.599 2°56.094 0.7 24 7.1 103580 100
2007-03-14 08:37:55 51°13.599 2°56.094 0.9 12 7.1 103580 100
2007-03-14 08:38:00 51°13.599 2°56.094 0.8 12 7.1 103580 100
2007-03-14 08:38:05 51°13.599 2°56.094 0.9 12 7.1 103580 99
2007-03-14 08:38:10 51°13.599 2°56.094 0.9 11 7.1 103580 99
2007-03-14 08:38:15 51°13.599 2°56.094 0.9 11 7.1 103580 99
2007-03-14 08:38:20 51°13.599 2°56.094 0.6 7 7.1 103580 99
2007-03-14 08:38:25 51°13.599 2°56.094 0.7 10 7.1 103580 99
2007-03-14 08:38:30 51°13.599 2°56.094 0.8 9 7.1 103580 99
2007-03-14 08:38:35 51°13.599 2°56.094 0.9 6 7.1 103580 99
2007-03-14 08:38:40 51°13.599 2°56.094 0.9 5 7.1 103580 99
2007-03-14 08:38:45 51°13.599 2°56.094 0.8 6 7.2 103580 99
2007-03-14 08:38:50 51°13.599 2°56.095 0.8 18 7.2 103580 99
2007-03-14 08:38:55 51°13.599 2°56.095 1 21 7.2 103580 99
2007-03-14 08:39:00 51°13.599 2°56.095 1 23 7.2 103580 99
2007-03-14 08:39:05 51°13.599 2°56.095 0.9 21 7.2 103580 99
2007-03-14 08:39:10 51°13.599 2°56.095 0.8 19 7.2 103580 99
2007-03-14 08:39:15 51°13.599 2°56.095 0.9 11 7.2 103580 99
2007-03-14 08:39:20 51°13.599 2°56.094 0.8 20 7.2 103580 99
2007-03-14 08:39:25 51°13.599 2°56.095 0.8 20 7.2 103580 99
2007-03-14 08:39:30 51°13.599 2°56.094 0.8 5 7.2 103580 99
2007-03-14 08:39:35 51°13.599 2°56.094 0.7 3 7.2 103580 99
2007-03-14 08:39:40 51°13.599 2°56.095 0.7 7 7.2 103580 99
2007-03-14 08:39:45 51°13.599 2°56.094 0.5 19 7.3 103580 99
2007-03-14 08:39:50 51°13.599 2°56.094 0.4 23 7.3 103580 99
2007-03-14 08:39:55 51°13.599 2°56.094 0.4 18 7.3 103580 99
2007-03-14 08:40:00 51°13.599 2°56.094 0.6 16 7.3 103580 99
2007-03-14 08:40:05 51°13.599 2°56.095 0.5 13 7.3 103580 99
2007-03-14 08:40:10 51°13.599 2°56.095 0.4 13 7.3 103580 99
2007-03-14 08:40:15 51°13.599 2°56.095 0.6 19 7.4 103580 99
2007-03-14 08:40:20 51°13.599 2°56.095 0.8 16 7.4 103580 99
2007-03-14 08:40:25 51°13.599 2°56.095 0.7 4 7.4 103580 99
2007-03-14 08:40:30 51°13.599 2°56.095 0.8 346 7.4 103580 99
2007-03-14 08:40:35 51°13.599 2°56.095 1 15 7.4 103580 99
2007-03-14 08:40:40 51°13.599 2°56.095 0.9 22 7.4 103580 99
2007-03-14 08:40:45 51°13.599 2°56.095 1.5 34 7.4 103580 99
2007-03-14 08:40:50 51°13.599 2°56.095 1.4 33 7.4 103580 99
2007-03-14 08:40:55 51°13.599 2°56.095 1.3 33 7.4 103580 99
2007-03-14 08:41:00 51°13.599 2°56.095 1.6 31 7.4 103580 99
2007-03-14 08:41:05 51°13.599 2°56.095 1.7 30 7.5 103580 99
2007-03-14 08:41:10 51°13.599 2°56.095 1.3 28 7.5 103580 99
2007-03-14 08:41:15 51°13.599 2°56.095 1.2 26 7.5 103580 98
2007-03-14 08:41:20 51°13.599 2°56.095 1.1 15 7.5 103580 98
2007-03-14 08:41:25 51°13.599 2°56.095 1.1 18 7.5 103580 98
2007-03-14 08:41:30 51°13.599 2°56.095 1.1 18 7.5 103580 98
2007-03-14 08:41:35 51°13.599 2°56.094 1.1 20 7.5 103580 98
2007-03-14 08:41:40 51°13.599 2°56.094 0.9 21 7.5 103580 98
2007-03-14 08:41:45 51°13.599 2°56.094 1 20 7.5 103580 98
2007-03-14 08:41:50 51°13.599 2°56.094 0.9 21 7.5 103580 98
2007-03-14 08:41:55 51°13.599 2°56.094 0.9 23 7.5 103580 98
2007-03-14 08:42:00 51°13.599 2°56.094 0.8 21 7.5 103580 98
2007-03-14 08:42:05 51°13.599 2°56.094 0.8 13 7.6 103580 98
2007-03-14 08:42:10 51°13.599 2°56.094 0.9 16 7.6 103580 98
2007-03-14 08:42:15 51°13.599 2°56.094 1 17 7.6 103580 98
2007-03-14 08:42:20 51°13.599 2°56.094 1 15 7.6 103580 98
2007-03-14 08:42:25 51°13.599 2°56.094 1.3 16 7.6 103580 98
2007-03-14 08:42:30 51°13.599 2°56.094 1.2 14 7.6 103580 98
2007-03-14 08:42:35 51°13.599 2°56.094 1 14 7.6 103580 98
2007-03-14 08:42:40 51°13.599 2°56.094 1.5 16 7.6 103580 98
2007-03-14 08:42:45 51°13.599 2°56.094 1.5 20 7.6 103580 98
2007-03-14 08:42:50 51°13.599 2°56.094 1.4 22 7.6 103580 98
2007-03-14 08:42:55 51°13.599 2°56.094 1.2 26 7.6 103580 97
2007-03-14 08:43:00 51°13.599 2°56.093 1.1 20 7.6 103580 97
2007-03-14 08:43:05 51°13.599 2°56.093 1.3 19 7.6 103580 97
2007-03-14 08:43:10 51°13.598 2°56.093 1.4 25 7.6 103580 97
2007-03-14 08:43:15 51°13.598 2°56.093 1.5 21 7.6 103580 97
2007-03-14 08:43:20 51°13.598 2°56.094 1.3 20 7.6 103580 97
2007-03-14 08:43:25 51°13.598 2°56.094 1.5 20 7.6 103580 97
2007-03-14 08:43:30 51°13.598 2°56.094 1.4 24 7.6 103580 97
2007-03-14 08:43:35 51°13.598 2°56.094 1.1 21 7.7 103580 97
2007-03-14 08:43:40 51°13.598 2°56.094 1 23 7.7 103580 97
2007-03-14 08:43:45 51°13.598 2°56.094 1.1 19 7.7 103590 97
2007-03-14 08:43:50 51°13.598 2°56.093 1 20 7.7 103590 97
2007-03-14 08:43:55 51°13.598 2°56.093 1 16 7.7 103580 97
2007-03-14 08:44:00 51°13.598 2°56.093 1.1 27 7.7 103580 97
2007-03-14 08:44:05 51°13.598 2°56.093 1.1 22 7.7 103590 97
2007-03-14 08:44:10 51°13.598 2°56.093 0.9 18 7.7 103590 97
2007-03-14 08:44:15 51°13.598 2°56.093 0.9 23 7.7 103590 97
2007-03-14 08:44:20 51°13.598 2°56.093 0.9 20 7.7 103590 97
2007-03-14 08:44:25 51°13.598 2°56.094 0.8 18 7.7 103590 96
2007-03-14 08:44:30 51°13.598 2°56.094 0.8 14 7.7 103590 96
2007-03-14 08:44:35 51°13.598 2°56.094 1.2 22 7.7 103580 96
2007-03-14 08:44:40 51°13.598 2°56.094 1.2 26 7.7 103580 96
2007-03-14 08:44:45 51°13.598 2°56.094 1 26 7.7 103590 96
2007-03-14 08:44:50 51°13.598 2°56.094 0.9 25 7.7 103590 96
2007-03-14 08:44:55 51°13.598 2°56.094 0.7 25 7.7 103580 96
2007-03-14 08:45:00 51°13.598 2°56.094 0.6 24 7.7 103580 96
2007-03-14 08:45:05 51°13.598 2°56.094 0.7 14 7.7 103590 96
2007-03-14 08:45:10 51°13.598 2°56.094 0.6 14 7.7 103590 96
2007-03-14 08:45:15 51°13.598 2°56.094 0.5 14 7.7 103590 96
2007-03-14 08:45:20 51°13.598 2°56.094 0.5 15 7.7 103590 96
2007-03-14 08:45:25 51°13.598 2°56.094 0.5 16 7.8 103590 96
2007-03-14 08:45:30 51°13.598 2°56.094 1.2 20 7.8 103590 96
2007-03-14 08:45:35 51°13.598 2°56.094 1.1 17 7.8 103590 96
2007-03-14 08:45:40 51°13.598 2°56.094 1 22 7.8 103590 96
2007-03-14 08:45:45 51°13.598 2°56.094 0.8 26 7.8 103590 96
2007-03-14 08:45:50 51°13.598 2°56.094 0.7 31 7.8 103590 96
2007-03-14 08:45:55 51°13.598 2°56.094 0.6 30 7.8 103590 96
2007-03-14 08:46:00 51°13.598 2°56.094 0.6 27 7.8 103590 96
2007-03-14 08:46:05 51°13.598 2°56.094 0.5 26 7.8 103580 96
2007-03-14 08:46:10 51°13.598 2°56.094 0.5 26 7.8 103580 96
2007-03-14 08:46:15 51°13.598 2°56.094 0.6 22 7.8 103590 95
2007-03-14 08:46:20 51°13.598 2°56.094 0.5 22 7.8 103590 95
2007-03-14 08:46:25 51°13.598 2°56.094 0.4 19 7.8 103590 95
2007-03-14 08:46:30 51°13.598 2°56.094 0.9 23 7.8 103590 95
2007-03-14 08:46:35 51°13.598 2°56.094 0.9 26 7.9 103590 95
2007-03-14 08:46:40 51°13.598 2°56.094 0.7 26 7.9 103590 95
2007-03-14 08:46:45 51°13.598 2°56.094 0.7 28 7.9 103590 95
2007-03-14 08:46:50 51°13.598 2°56.094 1 26 7.9 103590 95
2007-03-14 08:46:55 51°13.598 2°56.094 0.9 27 7.9 103590 95
2007-03-14 08:47:00 51°13.598 2°56.094 1 24 7.9 103590 95
2007-03-14 08:47:05 51°13.598 2°56.094 0.8 19 7.9 103590 95
2007-03-14 08:47:10 51°13.598 2°56.094 0.6 19 7.9 103590 95
2007-03-14 08:47:15 51°13.598 2°56.094 0.6 19 7.9 103590 95
2007-03-14 08:47:20 51°13.598 2°56.094 0.5 19 7.9 103590 95
2007-03-14 08:47:25 51°13.598 2°56.094 0.6 19 8 103590 95
2007-03-14 08:47:30 51°13.598 2°56.094 0.6 25 8 103590 95
2007-03-14 08:47:35 51°13.598 2°56.094 0.6 31 8 103590 95
2007-03-14 08:47:40 51°13.598 2°56.094 0.5 31 8 103590 95
2007-03-14 08:47:45 51°13.598 2°56.094 0.4 32 8 103590 95
2007-03-14 08:47:50 51°13.599 2°56.094 0.4 32 8 103590 95
2007-03-14 08:47:55 51°13.599 2°56.093 0.6 30 8 103590 95
2007-03-14 08:48:00 51°13.599 2°56.094 0.4 30 8 103590 95
2007-03-14 08:48:05 51°13.599 2°56.094 0.3 30 8.1 103590 95
2007-03-14 08:48:10 51°13.599 2°56.094 0.2 30 8.1 103590 95
2007-03-14 08:48:15 51°13.599 2°56.094 0.3 37 8.1 103590 95
2007-03-14 08:48:20 51°13.599 2°56.094 0.2 29 8.1 103590 95
2007-03-14 08:48:25 51°13.599 2°56.094 0.2 25 8.1 103590 94
2007-03-14 08:48:30 51°13.599 2°56.094 0.5 8 8.1 103590 94
2007-03-14 08:48:35 51°13.599 2°56.094 0.5 8 8.1 103590 94
2007-03-14 08:48:40 51°13.599 2°56.094 0.5 12 8.1 103590 94
2007-03-14 08:48:45 51°13.599 2°56.094 0.6 14 8.2 103590 94
2007-03-14 08:48:50 51°13.599 2°56.094 0.7 359 8.2 103590 94
2007-03-14 08:48:55 51°13.599 2°56.094 0.8 355 8.2 103590 94
2007-03-14 08:49:00 51°13.599 2°56.094 1 8 8.2 103590 94
2007-03-14 08:49:05 51°13.599 2°56.094 1.5 9 8.2 103590 94
2007-03-14 08:49:10 51°13.599 2°56.094 1.3 13 8.2 103590 94
2007-03-14 08:49:15 51°13.599 2°56.094 0.9 25 8.2 103590 94
2007-03-14 08:49:20 51°13.599 2°56.094 1.3 22 8.2 103590 94
2007-03-14 08:49:25 51°13.599 2°56.093 1.5 23 8.2 103590 94
2007-03-14 08:49:30 51°13.598 2°56.093 1.3 21 8.2 103590 94
2007-03-14 08:49:35 51°13.598 2°56.093 1.4 17 8.2 103580 94
2007-03-14 08:49:40 51°13.598 2°56.093 1.2 19 8.2 103580 94
2007-03-14 08:49:45 51°13.598 2°56.093 1.1 18 8.3 103590 93
2007-03-14 08:49:50 51°13.598 2°56.093 1 18 8.3 103590 93
2007-03-14 08:49:55 51°13.598 2°56.093 1 18 8.3 103590 93